sat.trackr.live / text

‹ back to catalog

STARLINK-5114

NORAD 54003 · 2022-125AR

PAYLOAD ACTIVE UNKNOWN

§ Identity

Operator
Country
US
Launch date
2022-10-05
Launch site
AFWTR
Launch vehicle
Mass (kg)
RCS (m²)

Purposes: comms

External: N2YO · Heavens-Above · Gunter

§ Orbital elements

Epoch: 2026-09-20T16:32:17.640384Z

Period
95.44 min
Inclination
53.1598°
Eccentricity
0.0001253
Mean motion
15.08835177 rev/d
Perigee alt
538.9 km
Apogee alt
540.6 km
Semi-major
6,917.9 km
B*
5.5805e-5
RAAN
57.8706°
Arg perigee
94.6338°
Mean anomaly
265.4797°
Rev number
21,890

§ Raw data

STARLINK-51141 54003U 22125AR  26263.68909306  .00000600  00000+0  55805-4 0  99962 54003  53.1598  57.8706 0001253  94.6338 265.4797 15.08835177218907

JSON: /api/v1/satellites/54003 · /tle

For live sub-satellite position, see the globe view (requires WebGL).

§ Visibility from observer

Set your observer location to see the next 7 days of passes ≥ 10°. The values pass through the URL so the page stays shareable.

No JS? Fill the form by hand. The geolocation button needs JavaScript.